Regional Weather Roundup
Issued by NWS

Home | Current Version | Previous Version | Graphics & Text | Print | Product List | Glossary Off
Versions: 1 2 3 4 5 6 7 8 9 10 11 12 13 14 15 16 17 18 19 20 21 22 23 24 25 26 27 28 29 30 31 32 33 34 35 36 37 38 39 40 41 42 43 44 45 46 47 48 49 50

000
ASUS43 KTOP 220208
RWRKS

WEATHER ROUNDUP FOR KANSAS
NATIONAL WEATHER SERVICE GOODLAND KS
900 PM CDT MON AUG 21 2017

NOTE:  "FAIR" INDICATES FEW OR NO CLOUDS BELOW 12,000 FEET WITH NO
SIGNIFICANT WEATHER AND/OR OBSTRUCTIONS TO VISIBILITY.

KSZ001>006-013>018-027>032-041>047-220300-
NORTHWEST KANSAS

CITY           SKY/WX    TMP DP  RH WIND       PRES   REMARKS
GOODLAND       CLEAR     76  68  76 N7        30.05R
HAYS           PTCLDY    83  66  56 S15       29.92R
HILL CITY      CLEAR     79  66  64 N7        29.93R
RUSSELL        PTCLDY    82  65  56 MISG      29.91S
$$

KSZ061>065-074>080-084>089-220300-
SOUTHWEST KANSAS

CITY           SKY/WX    TMP DP  RH WIND       PRES   REMARKS
DODGE CITY     CLEAR     80  65  59 SW13      30.00R
ELKHART          N/A     74  68  82 S7          N/A
GARDEN CITY    CLEAR     77  65  66 S10       30.00R
GREAT BEND     CLOUDY    82  67  60 SW15G22   29.95S
LIBERAL        CLEAR     76  67  73 S9        30.04R
PRATT          CLOUDY    78  69  73 S8        29.97S
$$

KSZ066>073-081>083-090>101-220300-
SOUTHEAST KANSAS

CITY           SKY/WX    TMP DP  RH WIND       PRES   REMARKS
CHANUTE        CLEAR     82  75  79 S10       29.96F
COFFEYVILLE    CLEAR     82  75  79 S7        29.97S
HUTCHINSON     CLOUDY    81  71  71 SW5       29.93F
MEDICINE LODGE   N/A     82  70  66 S7        29.95S
NEWTON         CLOUDY    80  73  79 S6        29.94
PARSONS        CLEAR     82  74  76 S6        29.98F
WICHITA INTL   TSTM      75  72  90 S23G53    29.94R SQUALL  VSB 3/4
WICHITA JABRA  TSTM      80  73  79 SW26G44   29.97R SQUALL
WICHITA MCCONL LGT RAIN  86  70  58 W10       29.95R
WINFIELD       CLEAR     83  71  67 S12       29.96S
$$

KSZ007>012-019>026-033>040-048>060-102>105-220300-
NORTHEAST KANSAS

CITY           SKY/WX    TMP DP  RH WIND       PRES   REMARKS
CONCORDIA      PTCLDY    75  75 100 SE7       29.90S
EMPORIA        HVY RAIN  72  69  90 VRB6G20   29.96F FOG
LAWRENCE       TSTM      80  73  79 NW24G30   29.99R
MANHATTAN      RAIN      76  74  93 CALM      29.92R FOG
MARYSVILLE     CLOUDY    72  72 100 SE6       29.90S
OLATHE IND     CLOUDY    82  75  79 S7        29.95R
OLATHE EXE     PTCLDY    80  76  87 S9        29.94F
SALINA         PTCLDY    84  70  62 S9        29.91S
TOPEKA BILLARD CLOUDY    73  73 100 E8        29.96R THUNDER
TOPEKA FORBES  TSTM      75  72  90 SW28G33   29.95F FOG
$$




USA.gov is the U.S. government's official web portal to all federal, state and local government web resources and services.